When you browse on this site, cookies collect data to enhance your experience and personalize the content and advertising you see.
Visit our Privacy Policy to learn more. By continuing to use the site, you agree to this use of cookies and data.
  • In Germany
  • List of Countries
  • For 7 days
  • Water Temperature
  • Weather Map
  • Weather Widgets
  • user-avatar
    Login

    Hourly Weather Prutz

    Today, 17 November, Sunday

    Time Temperature Precipitation Wind Pressure Humidity
    00:00 -2°C° 0.2 mm 1 mps 626 mmHg 91%
    01:00 -1°C° 0 mm 1 mps 626 mmHg 95%
    02:00 -1°C° 2 mm 1 mps 625 mmHg 96%
    03:00 -1°C° 2 mm 1 mps 624 mmHg 96%
    04:00 -1°C° 2 mm 1 mps 624 mmHg 97%
    05:00 0°C° 4 mm 1 mps 623 mmHg 97%
    06:00 -1°C° 4 mm 0 mps 623 mmHg 97%
    07:00 -1°C° 0 mm 0 mps 623 mmHg 97%
    08:00 0°C° 2.3 mm 1 mps 622 mmHg 97%
    09:00 +1°C° 2.3 mm 1 mps 622 mmHg 97%
    10:00 +2°C° 2.3 mm 1 mps 622 mmHg 97%
    11:00 +2°C° 2.5 mm 1 mps 622 mmHg 97%
    12:00 +1°C° 2.5 mm 2 mps 621 mmHg 98%
    13:00 +2°C° 2.5 mm 2 mps 621 mmHg 98%
    14:00 +2°C° 1.8 mm 2 mps 621 mmHg 98%
    15:00 +2°C° 1.8 mm 2 mps 621 mmHg 98%
    16:00 +2°C° 1.8 mm 2 mps 621 mmHg 98%
    17:00 +2°C° 0.9 mm 2 mps 621 mmHg 98%
    18:00 +2°C° 0.9 mm 2 mps 622 mmHg 98%
    19:00 +1°C° 0.9 mm 2 mps 622 mmHg 98%
    20:00 +1°C° 0.3 mm 2 mps 623 mmHg 97%
    21:00 -1°C° 0.3 mm 2 mps 623 mmHg 95%
    22:00 -1°C° 0.3 mm 2 mps 623 mmHg 94%
    23:00 -2°C° 0.1 mm 2 mps 623 mmHg 93%

    Tomorrow, 18 November, Monday

    Time Temperature Precipitation Wind Pressure Humidity
    00:00 -3°C° 0.1 mm 2 mps 623 mmHg 92%
    01:00 -4°C° 0.1 mm 2 mps 623 mmHg 91%
    02:00 -4°C° 0.1 mm 2 mps 623 mmHg 91%
    03:00 -5°C° 0.1 mm 2 mps 623 mmHg 90%
    04:00 -5°C° 0.1 mm 2 mps 623 mmHg 90%
    05:00 -7°C° 0 mm 3 mps 623 mmHg 89%
    06:00 -8°C° 0 mm 3 mps 623 mmHg 89%
    07:00 -9°C° 0 mm 3 mps 624 mmHg 88%
    08:00 -7°C° 0 mm 3 mps 624 mmHg 88%
    09:00 -6°C° 0 mm 3 mps 625 mmHg 88%
    10:00 -5°C° 0 mm 3 mps 626 mmHg 88%
    11:00 -3°C° 0 mm 2 mps 626 mmHg 86%
    12:00 -2°C° 0 mm 2 mps 627 mmHg 85%
    13:00 -1°C° 0 mm 2 mps 627 mmHg 84%
    14:00 -2°C° 0 mm 2 mps 627 mmHg 85%
    15:00 -3°C° 0 mm 2 mps 627 mmHg 87%
    16:00 -4°C° 0 mm 2 mps 626 mmHg 89%
    17:00 -5°C° 0 mm 2 mps 627 mmHg 89%
    18:00 -7°C° 0 mm 3 mps 627 mmHg 88%
    19:00 -8°C° 0 mm 3 mps 627 mmHg 87%
    20:00 -8°C° 0 mm 3 mps 627 mmHg 87%
    21:00 -8°C° 0 mm 3 mps 627 mmHg 86%
    22:00 -8°C° 0 mm 3 mps 628 mmHg 86%
    23:00 -8°C° 0 mm 3 mps 628 mmHg 87%

    Day after tomorrow, 19 November, Tuesday

    Time Temperature Precipitation Wind Pressure Humidity
    00:00 -7°C° 0 mm 3 mps 628 mmHg 87%
    01:00 -7°C° 0 mm 3 mps 628 mmHg 88%
    02:00 -7°C° 0 mm 3 mps 628 mmHg 88%
    03:00 -7°C° 0 mm 3 mps 627 mmHg 88%
    04:00 -7°C° 0 mm 3 mps 627 mmHg 88%
    05:00 -7°C° 0 mm 3 mps 627 mmHg 88%
    06:00 -7°C° 0 mm 3 mps 628 mmHg 89%
    07:00 -6°C° 0 mm 3 mps 628 mmHg 89%
    08:00 -5°C° 0 mm 3 mps 629 mmHg 89%
    09:00 -2°C° 0 mm 3 mps 629 mmHg 90%
    10:00 -1°C° 0 mm 3 mps 630 mmHg 91%
    11:00 +1°C° 0 mm 2 mps 630 mmHg 93%
    12:00 +2°C° 0 mm 2 mps 630 mmHg 95%
    13:00 +3°C° 0 mm 2 mps 631 mmHg 97%
    14:00 +2°C° 0 mm 2 mps 631 mmHg 96%
    15:00 +2°C° 0 mm 1 mps 630 mmHg 96%
    16:00 +2°C° 0 mm 1 mps 630 mmHg 95%
    17:00 +1°C° 0 mm 1 mps 630 mmHg 94%
    18:00 -1°C° 0 mm 2 mps 630 mmHg 93%
    19:00 -2°C° 0 mm 2 mps 631 mmHg 92%
    20:00 -2°C° 0 mm 2 mps 631 mmHg 91%
    21:00 -3°C° 0 mm 2 mps 631 mmHg 91%
    22:00 -3°C° 0 mm 2 mps 631 mmHg 90%
    23:00 -3°C° 0 mm 2 mps 631 mmHg 90%

    20 November, Wednesday

    Time Temperature Precipitation Wind Pressure Humidity
    00:00 -3°C° 0 mm 2 mps 631 mmHg 89%
    01:00 -3°C° 0 mm 2 mps 631 mmHg 89%
    02:00 -3°C° 0 mm 2 mps 630 mmHg 88%
    03:00 -4°C° 0 mm 2 mps 630 mmHg 88%
    04:00 -4°C° 0 mm 2 mps 630 mmHg 87%
    05:00 -4°C° 0 mm 2 mps 630 mmHg 87%
    06:00 -4°C° 0 mm 2 mps 630 mmHg 87%
    07:00 -4°C° 0 mm 2 mps 630 mmHg 86%
    08:00 -2°C° 0 mm 2 mps 630 mmHg 88%
    09:00 -1°C° 0 mm 2 mps 631 mmHg 89%
    10:00 +2°C° 0 mm 2 mps 631 mmHg 91%
    11:00 +2°C° 0 mm 2 mps 631 mmHg 93%
    12:00 +3°C° 0 mm 2 mps 631 mmHg 95%
    13:00 +3°C° 0 mm 2 mps 631 mmHg 97%
    14:00 +3°C° 0 mm 2 mps 630 mmHg 95%
    15:00 +2°C° 0 mm 2 mps 630 mmHg 94%
    16:00 0°C° 0 mm 3 mps 630 mmHg 93%
    17:00 0°C° 0 mm 3 mps 629 mmHg 92%
    18:00 -1°C° 0 mm 3 mps 629 mmHg 91%
    19:00 -2°C° 0 mm 3 mps 629 mmHg 90%
    20:00 -2°C° 0 mm 3 mps 629 mmHg 89%
    21:00 -2°C° 0 mm 3 mps 629 mmHg 89%
    22:00 -2°C° 0 mm 3 mps 629 mmHg 89%
    23:00 -2°C° 0 mm 3 mps 628 mmHg 89%

    21 November, Thursday

    Time Temperature Precipitation Wind Pressure Humidity
    00:00 -4°C° 0 mm 3 mps 628 mmHg 89%
    01:00 -4°C° 0 mm 3 mps 628 mmHg 89%
    02:00 -4°C° 0 mm 3 mps 628 mmHg 89%
    03:00 -4°C° 0 mm 3 mps 627 mmHg 89%
    04:00 -4°C° 0 mm 3 mps 627 mmHg 89%
    05:00 -4°C° 0 mm 3 mps 627 mmHg 89%
    06:00 -4°C° 0 mm 3 mps 627 mmHg 89%
    07:00 -4°C° 0 mm 3 mps 627 mmHg 89%
    08:00 -2°C° 0 mm 3 mps 627 mmHg 90%
    09:00 -1°C° 0 mm 3 mps 628 mmHg 90%
    10:00 0°C° 0 mm 3 mps 628 mmHg 91%
    11:00 0°C° 0 mm 3 mps 628 mmHg 92%
    12:00 +1°C° 0 mm 3 mps 628 mmHg 93%
    13:00 +2°C° 0 mm 3 mps 628 mmHg 94%
    14:00 +1°C° 0 mm 3 mps 627 mmHg 92%
    15:00 +1°C° 0 mm 3 mps 627 mmHg 91%
    16:00 0°C° 0 mm 3 mps 627 mmHg 90%
    17:00 -1°C° 0 mm 3 mps 627 mmHg 90%
    18:00 -2°C° 0 mm 3 mps 627 mmHg 89%
    19:00 -4°C° 0 mm 4 mps 627 mmHg 89%
    20:00 -4°C° 0 mm 4 mps 627 mmHg 89%
    21:00 -5°C° 0 mm 4 mps 627 mmHg 89%
    22:00 -5°C° 0 mm 4 mps 627 mmHg 89%
    23:00 -5°C° 0 mm 4 mps 627 mmHg 89%

    22 November, Friday

    Time Temperature Precipitation Wind Pressure Humidity
    00:00 -5°C° 0 mm 4 mps 627 mmHg 89%
    01:00 -5°C° 0 mm 4 mps 627 mmHg 89%
    02:00 -5°C° 0 mm 4 mps 627 mmHg 88%
    03:00 -5°C° 0 mm 4 mps 627 mmHg 88%
    04:00 -5°C° 0 mm 4 mps 627 mmHg 88%
    05:00 -5°C° 0 mm 4 mps 627 mmHg 87%
    06:00 -4°C° 0 mm 4 mps 628 mmHg 86%
    07:00 -4°C° 0 mm 4 mps 628 mmHg 86%
    08:00 -3°C° 0 mm 4 mps 628 mmHg 87%
    09:00 -2°C° 0 mm 4 mps 629 mmHg 88%
    10:00 -1°C° 0 mm 4 mps 629 mmHg 90%
    11:00 0°C° 0 mm 4 mps 629 mmHg 91%
    12:00 0°C° 0 mm 4 mps 629 mmHg 93%
    13:00 +1°C° 0 mm 4 mps 628 mmHg 95%
    14:00 +1°C° 0 mm 4 mps 628 mmHg 93%
    15:00 0°C° 0 mm 4 mps 628 mmHg 92%
    16:00 0°C° 0 mm 4 mps 628 mmHg 90%
    17:00 -1°C° 0 mm 4 mps 628 mmHg 90%
    18:00 -1°C° 0 mm 4 mps 628 mmHg 90%
    19:00 -2°C° 0 mm 4 mps 628 mmHg 89%
    20:00 -2°C° 0 mm 4 mps 628 mmHg 89%
    21:00 -2°C° 0 mm 4 mps 628 mmHg 89%
    22:00 -2°C° 0 mm 4 mps 628 mmHg 89%
    23:00 -2°C° 0 mm 4 mps 628 mmHg 89%
    Show more